Upington, South Africa

1:09 PM SAST on August 30, 2016 (GMT +0200)
Upington

Weather History for FAUP - January, 2013

Change the Weather History Date:

Monday, January 7, 2013

  Actual Average Record
Temperature  
Mean Temperature 84 °F -  
Max Temperature 105 °F 93 °F 108 °F (2015)
Min Temperature 62 °F 66 °F 55 °F (2002)
Cooling Degree Days 18    
Growing Degree Days 34 (Base 50)    
Moisture  
Dew Point 38 °F    
Average Humidity 20    
Maximum Humidity 55    
Minimum Humidity 4    
Precipitation  
Precipitation 0.00 in 0.04 in - ()
Sea Level Pressure  
Sea Level Pressure 29.98 in    
Wind  
Wind Speed 5 mph ()    
Max Wind Speed 13 mph    
Max Gust Speed 18 mph    
Visibility 17.0 miles    
Events      
Averages and records for this station are not official NWS values.
T = Trace of Precipitation, MM = Missing Value Source: Averaged Metar Reports

Daily Weather History Graph

Daily Weather History Graph

Search for Another Location

Airport or City:

Trip Planner

Search our weather history database for the weather conditions in past years. The results will help you decide how hot, cold, wet, or windy it might be!

Date:

Astronomy

Jan. 07, 2013 Rise Set
Actual Time 5:45 AM SAST 7:36 PM SAST
Civil Twilight 5:18 AM SAST 8:03 PM SAST
Nautical Twilight 4:46 AM SAST 8:35 PM SAST
Astronomical Twilight 4:12 AM SAST 9:09 PM SAST
Moon 1:22 AM SAST (1/7) 3:08 PM SAST (1/7)
Length of Visible Light 14h 44m
Length of Day
13h 51m
Waning Crescent, 26% of the Moon is Illuminated
Jan 7
Waning Crescent
Jan 11
New
Jan 19
First Quarter
Jan 27
Full
Feb 3
Last Quarter

Hourly Weather History & Observations

Time (SAST) Temp. Dew Point Humidity Pressure Visibility Wind Dir Wind Speed Gust Speed Precip Events Conditions
12:00 AM 78.8 °F 32.0 °F 18% 29.98 in - SW 8.1 mph - N/A   Unknown
1:00 AM 77.0 °F 35.6 °F 22% 29.98 in - SSW 8.1 mph - N/A   Clear
2:00 AM 73 °F 45 °F 26%  in 25 mi SSW 5.8 mph - -  
2:00 AM 71.6 °F 44.6 °F 38% 29.98 in - SSW 4.6 mph - N/A   Clear
3:00 AM 69.8 °F 44.6 °F 40% 29.95 in - SW 3.5 mph - N/A   Clear
5:00 AM 66 °F 46 °F 38%  in 25 mi SW 3.5 mph - -  
5:00 AM 64.4 °F 44.6 °F 49% 30.01 in - SW 3.5 mph - N/A   Clear
6:00 AM 62.6 °F 46.4 °F 55% 30.01 in - SSW 3.5 mph - N/A   Clear
6:32 AM 68.0 °F 48.2 °F 49% 30.01 in - South 2.3 mph - N/A   Clear
7:00 AM 71.6 °F 48.2 °F 43% 30.01 in - SSW 2.3 mph - N/A   Clear
8:00 AM 77 °F 46 °F 23%  in 19 mi East 2.3 mph - -   Haze
8:00 AM 77.0 °F 44.6 °F 32% 30.01 in - East 1.2 mph - N/A   Clear
8:39 AM 80.6 °F 42.8 °F 26% 30.04 in - NNE 3.5 mph - N/A   Clear
9:00 AM 84.2 °F 44.6 °F 25% 30.04 in - NNE 3.5 mph - N/A   Clear
9:40 AM 87.8 °F 42.8 °F 21% 30.01 in - NNW 2.3 mph - N/A   Clear
10:00 AM 89.6 °F 39.2 °F 17% 30.01 in - NNW 3.5 mph - N/A   Clear
11:00 AM 96 °F 34 °F 5%  in 16 mi NNE 4.6 mph - -   Haze
11:00 AM 95.0 °F 33.8 °F 12% 30.01 in - NNE 3.5 mph - N/A   Clear
12:00 PM 95.0 °F 32.0 °F 11% 29.98 in - NNW 4.6 mph - N/A   Clear
12:35 PM 100.4 °F 32.0 °F 9% 29.98 in - WNW 4.6 mph - N/A   Clear
1:00 PM 100.4 °F 32.0 °F 9% 29.98 in - West 6.9 mph 18.4 mph N/A   Clear
2:00 PM 100 °F 32 °F 4%  in 16 mi WNW 9.2 mph - -   Haze
2:00 PM 98.6 °F 32.0 °F 10% 29.98 in - WNW 9.2 mph - N/A   Clear
2:45 PM 104.0 °F 32.0 °F 8% 29.95 in - WNW 6.9 mph - N/A   Clear
3:00 PM 104.0 °F 32.0 °F 8% 29.92 in - WSW 12.7 mph - N/A   Clear
4:00 PM 100.4 °F 32.0 °F 9% 29.92 in - WSW 12.7 mph - N/A   Clear
5:00 PM 101 °F 33 °F 4%  in 25 mi WSW 11.5 mph - -  
5:00 PM 100.4 °F 32.0 °F 9% 29.92 in - WSW 11.5 mph - N/A   Clear
6:00 PM 102.2 °F 33.8 °F 9% 29.92 in - WSW 8.1 mph - N/A   Clear
7:00 PM 98.6 °F 32.0 °F 10% 29.92 in - SW 9.2 mph - N/A   Clear
8:00 PM 92 °F 35 °F 7%  in 25 mi South 8.1 mph - -  
8:00 PM 91.4 °F 33.8 °F 13% 29.95 in - South 8.1 mph - N/A   Clear
9:00 PM 86.0 °F 35.6 °F 17% 29.95 in - South 5.8 mph - N/A   Unknown
10:00 PM 86.0 °F 33.8 °F 15% 29.98 in - South 3.5 mph - N/A   Unknown
11:00 PM 84 °F 33 °F 8%  in - Calm Calm - -  
11:00 PM 82.4 °F 32.0 °F 16% 29.98 in - Calm Calm - N/A   Unknown